STARLINK-33804, 63511

Orbit data source: Space-Track

STARLINK-33804, 63511 is a payload satellite owned by SpaceX/Seattle (US) in LEO that was launched on Mon, 07 Apr 2025 UTC via an FALCON 9 launch vehicle from the Air Force Western Test Range (AFWTR). Payload-class satellites include a variety of spacecraft equipped with specific instruments for various scientific and technological missions. These include communications satellites like Starlink; space stations such as the ISS; scientific satellites like the Hubble; Earth observation satellites from companies like Planet Labs, Umbra, and HawkEye 360; GPS; miniature CubeSats for education and research; and military/defense satellites.

Loading next visibility...
Identifier
63511, 2025-071U
Orbit
LEO
Country
Flag of USUS
Related business
Manufacturer
SpaceX/Seattle
Mission
Operational Commercial Communications
Bus & Motor
STARLINK V2MO, Unknown motor
Mass
575 kg wet, ~530 kg dry
Launch date (UTC)
2025-04-07 (10 months ago)
Launch vehicle
FALCON 9
Launch site
Air Force Western Test Range (AFWTR)
Object type
Payload
Rocket body
Debris
Shape & HBR
Box + 2 Pan, 17.7 m
Radar Cross Section
36.964 m², Large (>1 m²)

Expand to show TLE details & history
Last TLE update: 9 hours ago

TLE from 9 hours ago
0 STARLINK-33804
1 63511U 25071U   26036.07831953  .00025462  00000-0  86828-3 0  9998
2 63511  53.1575 291.5984 0001120  81.0864 279.0263 15.30220880 47406
Epoch: 2026-02-05T01:52Z
TLE epoch observation values (Epoch: 2026-02-05T01:52:46.807Z)
Latitude
-0.00006°
Longitude
128.16762°
Altitude
475.932 km
Speed
7.629 km/s
True Right ascension
19h 26m 23s
True Declination
0° 00' 00"
Sunlit
Object was in daylight at epoch
Visualization orbit readout
Latitude
Unknown
Longitude
Unknown
Altitude
Unknown
Speed
Unknown
Apparent Right ascension
Unknown
Apparent Declination
Unknown
Sunlit
N/A
Visualization observer readout
Local Sidereal Time
13:19:57
Azimuth
Unknown
Elevation
Unknown
Doppler factor
Unknown
Orbital elements
Apogee altitude
476.177 km
Perigee altitude
474.642 km
Semi-major axis
6,853.547 km
Eccentricity
0.00011
Inclination
53.1575°
RAAN
291.5984°
Arg. of periapsis
81.0864°
True anomaly
279.01362°
Mean anomaly
279.0263°
Eccentric anomaly
279.01996°
Mean motion
3.82534 °/min
Orbital period
94.11 mins
BSTAR
0.00086828
Loading maneuver chart data...
Computing Atmospheric mass density...
Loading historical data...
Loading historical data...
Loading historical data...
Loading historical data...
Loading historical data...
Loading historical data...
Loading historical data...

Documentation

Showing up to 5 results
|